Regional Weather Roundup
Issued by NWS

Home | Current Version | Previous Version | Graphics & Text | Print | Product List | Glossary Off
Versions: 1 2 3 4 5 6 7 8 9 10 11 12 13 14 15 16 17 18 19 20 21 22 23 24 25 26 27 28 29 30 31 32 33 34 35 36 37 38 39 40 41 42 43 44 45 46 47 48 49 50

000
ASUS43 KMKX 221100
RWRWI

WISCONSIN REGIONAL WEATHER ROUNDUP
NATIONAL WEATHER SERVICE MILWAUKEE/SULLIVAN WI
600 AM CDT SUN OCT 22 2017

NOTE: "FAIR" INDICATES FEW OR NO CLOUDS BELOW 12,000 FEET WITH NO
SIGNIFICANT WEATHER AND/OR OBSTRUCTIONS TO VISIBILITY.

WIZ001-002-006>008-014>016-023>028-221200-
NORTHWEST WISCONSIN

CITY           SKY/WX    TMP DP  RH WIND       PRES   REMARKS
SUPERIOR ARPT  MOCLDY    48  44  88 SW9       29.80R
ASHLAND        CLOUDY    50  45  83 SW12      29.81R
HAYWARD        CLOUDY    49  43  80 SW7       29.85R
SIREN          CLOUDY    47  41  80 W12       29.86R
CUMBERLAND     MOCLDY    46  41  81 W10       29.87R
RICE LAKE      MOCLDY    49  43  81 SW7       29.89R
CHETEK         MOCLDY    49  44  83 SW3       29.88R
LADYSMITH      CLOUDY    50  47  88 SW8       29.88R
EAU CLAIRE     NOT AVBL
MENOMONIE      CLOUDY    51  44  78 SW8       29.91R
NEW RICHMOND   NOT AVBL
OSCEOLA        CLOUDY    49  42  78 W9        29.92R
$$

WIZ003>005-009-010-017-018-221200-
NORTH CENTRAL WISCONSIN

CITY           SKY/WX    TMP DP  RH WIND       PRES   REMARKS
MANITOWISH WTR RAIN      50  50 100 SW7       29.82R
ARBOR VITAE    CLOUDY    52  50  95 W9G16     29.82R FOG
WOODRUFF       CLOUDY    52  50  95 W9G16     29.82R FOG
RHINELANDER    LGT RAIN  53  53 100 W13       29.85R
EAGLE RIVER    NOT AVBL
LAND O LAKES   CLOUDY    60  58  94 S10       29.81R
PHILLIPS       CLOUDY    49  49 100 SW8       29.84R
TOMAHAWK       CLOUDY    51  50  95 W7        29.84S
MEDFORD        CLOUDY    50  48  94 W6        29.86S
MERRILL        CLOUDY    53  53 100 W12       29.86R
$$

WIZ029-030-035-036-043>047-221200-
CENTRAL WISCONSIN

CITY           SKY/WX    TMP DP  RH WIND       PRES   REMARKS
WAUSAU         CLOUDY    53  52  96 W9        29.86R
MOSINEE        CLOUDY    54  52  94 W12G18    29.88R
MARSHFIELD     LGT RAIN  52  48  86 W9        29.88R
STEVENS POINT  CLOUDY    58  58 100 SW10G16   29.86R
WAUPACA        CLOUDY    66  59  79 S3        29.84R
WAUTOMA        CLOUDY   N/A N/A N/A SW10      29.87R
WISC RAPIDS    CLOUDY    54  52  93 W8        29.89R
CAMP DOUGLAS   NOT AVBL
$$

WIZ011>013-019>022-031-037>040-048>050-221200-
NORTHEAST WISCONSIN

CITY           SKY/WX    TMP DP  RH WIND       PRES   REMARKS
ANTIGO         MOCLDY    59  57  94 S9        29.84S
SHAWANO        CLOUDY    66  58  75 S5        29.84S
OCONTO         PTCLDY    62  56  82 S8        29.84S
STURGEON BAY   CLOUDY    60  54  80 S18G24    29.87S
GREEN BAY      CLOUDY    65  59  81 S12       29.85S
MANITOWOC      CLOUDY    59  53  80 S10       29.90S
APPLETON       CLOUDY    64  54  68 S15       29.84S
CLINTONVILLE   CLOUDY    64  55  72 S8        29.84R
OSHKOSH        CLOUDY    64  58  80 S10       29.86R
$$

WIZ032>034-041-042-053>061-221200-
SOUTHWEST WISCONSIN

CITY           SKY/WX    TMP DP  RH WIND       PRES   REMARKS
LA CROSSE      LGT RAIN  53  49  86 W7        29.94R
SPARTA         LGT RAIN  51  50  99 W6        29.92R
VIROQUA        CLOUDY    51  51 100 W8        29.93R
BOSCOBEL       LGT RAIN  55  51  86 W5        29.92R
PRAIRIE DU CHI CLOUDY    52  49  89 NW8       29.92S
PLATTEVILLE    CLOUDY    55  55 100 W9        29.91R
$$

WIZ056-057-062-063-064-067-068-221200-
SOUTH CENTRAL WISCONSIN

CITY           SKY/WX    TMP DP  RH WIND       PRES   REMARKS
REEDSBURG      CLOUDY    57  57 100 NW14      29.88R
BARABOO/DELLS  DRIZZLE   61  57  85 W8        29.87R
LONE ROCK      LGT RAIN  55  55 100 NW13      29.89R
MINERAL POINT  LGT RAIN  57  57 100 NW10      29.89R
MADISON        CLOUDY    66  57  72 S8        29.86R
MIDDLETON      CLOUDY    65  59  82 S7        29.87S
WATERTOWN      DRIZZLE   63  63  99 S9        29.88S
MONROE         CLOUDY    63  55  77 S3        29.88R
JANESVILLE     CLOUDY    63  63 100 S9        29.88F
$$

WIZ051-052-058>065-066-070>072-221200-
SOUTHEAST WISCONSIN

CITY           SKY/WX    TMP DP  RH WIND       PRES   REMARKS
MILWAUKEE      MOCLDY    60  56  86 SE7       29.92R
WAUKESHA       CLOUDY    64  55  72 S9        29.92R
MILWAUKEE/TIMM MOCLDY    64  52  63 S8        29.91S
RACINE         MOCLDY    60  56  86 S12       29.93S
BURLINGTON     MOCLDY    64  58  82 SW8       29.92R
KENOSHA        CLOUDY    67  57  70 S13       29.92S
FOND DU LAC    CLOUDY    67  56  67 S13       29.87R
SHEBOYGAN      CLOUDY    59  56  89 S10       29.90S
WEST BEND      CLOUDY    64  54  68 S7        29.90S
JUNEAU         CLOUDY    63  58  84 S10       29.89S
$$

LSZ147-162-221200-
LAKE SUPERIOR

STATION/POSITION TIME  TEMP    WIND        PRES    WAVE
                       AIR SEA DIR/SP/G            HT/PER
                 (UTC) (F)     (DEG/KT/KT) (MB)    (FT/S)
W MID LAKE BUOY  0950   54 52              1006.3R   3/ 4
DEVILS ISLAND    1000   53     230/ 26/ 31 1007.2R
PORT WING        0840          230/  9/ 12 1007.8S
SAXON HARBOR     1040   55     240/  7/ 17 1008.8R
$$

LMZ867-665-643>646-221200-
LAKE MICHIGAN

STATION/POSITION TIME  TEMP    WIND        PRES    WAVE
                       AIR SEA DIR/SP/G            HT/PER
                 (UTC) (F)     (DEG/KT/KT) (MB)    (FT/S)
S GREEN BAY BUOY 1030   62 58  180/ 14/ 17 1010.9F
N MID LAKE BUOY  0950   62 58  170/ 21/ 25 1012.5F   8/ 7
NORTHPORT PIER   1040   60     160/  9/ 17 1011.5S
KEWAUNEE LAKESHO 1030   56     180/ 13/ 16 1011.7S
SHEBOYGAN LAKESH 1000   55     190/ 18/ 19 1012.4F
PORT WASHINGTON  1030   55     200/  5/  8 1013.9S
ATWATER BUOY     0909   57 52  150/ 16/ 19 1012.9F
MILWAUKEE LAKESH 1030   56     160/ 11/ 13   N/A
S MID LAKE BUOY  0950   63 60  150/ 19/ 21 1014.2F   3/ 5
KENOSHA   LAKESH 1000   58     180/ 13/ 19 1012.9
$$

TC  - TEMPERATURE IN CELSIUS
VSB - VISIBILITY IN STATUTE MILES
WCI - WIND CHILL INDEX
HX  - HEAT INDEX





USA.gov is the U.S. government's official web portal to all federal, state and local government web resources and services.